Погода в Алексеевке

Россия / Белгородская область     50°31′34″N   37°36′02″E
темп.,
°C
ветер,
м/с
пор.,
м/с
влажн.,
%
обл.,
%
осадки,
мм/ч
давл.,
гПа
погр.,
м
11 мая, вт
вт1100:00+9ссв91891100 0.1 1015689
03:00+8с91793100 0.1 1014517
06:00+9ссв91890100 0.1 1014583
09:00+11св81292100 0.2 1015957
12:00+11в91168100 0.2 10181353
15:00+11всв8136686 0.2 10181512
18:00+11всв914736 0.1 10191424
21:00+8всв91582100 0.2 10201299
12 мая, ср
ср1200:00+8в91684100 0.3 10201494
03:00+8в81485100 0.4 10201003
06:00+7всв71685100 0.0 1020726
09:00+8в81489100 1.2 10201254
12:00+10в6128282 1.3 1018994
15:00+12юв698099 6.5 10171040
18:00+12юв5979100 1.4 1015895
21:00+9юв51392100 2.4 1015543
13 мая, чт
чт1300:00+7вюв5119328 1.8 1016276
03:00+8вюв499748 1.8 1016243
06:00+8юв279899 2.1 1016235
09:00+11ююв3592100 2.9 1016396
12:00+15ю3580100 0.1 1015853
15:00+17ю466789 0.2 10151292
18:00+18ю247248 0.1 1014907
21:00+14в2287100 0.2 101518
14 мая, пт
пт1400:00+14в4785100 0.0 1015135
03:00+12в489272 0.0 1014140
06:00+13вюв41190100 0.1 1014223
09:00+19юв71278100 0.1 1013576
12:00+23юв686271 0.0 10121061
15:00+24ююв6866100 0.0 10121166
18:00+22юв41073100 0.0 1011422
21:00+18вюв228689 2.2 101126
15 мая, сб
сб1500:00+17юв499276 1.2 1010170
03:00+16юз2294100 3.9 101025
06:00+16зюз2292100 0.0 101137
09:00+18зюз357995 0.0 1011294
12:00+22юз575966 0.0 10121261
15:00+23юз575551 0.0 10121633
18:00+20юз47705 0.9 1013269
21:00+16зюз23801 1.2 101321